Temp
15 15 15 15 14 14 14 14 14 14 14 13 13 13 12 12 11 11 10 10 10 10 10 10 9 9 9 9 8 8 8 8 8 7 7 7 7 7 7 7 7 6 6 6 6 5 5 5 5 5 5 4 4 4 4 4 4 4 3 3 3 3 3 3 3 3 2 2 2
15 15 15 14 14 14 14 14 14 13 13 13 13 12 12 11 11 11 10 10 10 10 10 9 9 9 8 8 8 8 8 8 8 7 7 7 7 7 7 6 6 6 6 6 5 5 5 5 5 4 4 4 4 4 4 4 4 3 3 3 3 3 3 3 3 2 2 2 2
15 15 14 14 14 14 14 13 13 13 13 12 12 12 11 11 11 10 10 10 10 9 9 9 9 8 8 8 8 8 8 8 7 7 7 7 7 7 6 6 6 6 6 5 5 5 5 5 4 4 4 4 4 4 4 4 3 3 3 3 3 3 3 3 2 2 2 2 2
14 14 14 14 14 14 14 13 13 13 12 12 11 11 11 11 10 10 10 10 9 9 9 9 8 8 8 8 8 8 8 7 7 7 7 7 7 6 6 6 6 6 5 5 5 5 5 4 4 4 4 4 4 4 4 4 3 3 3 3 3 3 3 2 2 2 2 2 2
14 14 14 14 14 14 14 14 13 12 12 12 11 11 11 10 10 10 10 9 9 9 8 8 8 8 8 8 8 7 7 7 7 7 7 7 6 6 6 6 6 5 5 5 5 5 4 4 4 4 4 4 4 4 4 3 3 3 3 3 3 3 2 2 2 2 2 2 2
14 14 13 13 14 14 13 13 13 12 12 11 11 11 10 10 10 10 9 9 9 8 8 8 8 8 8 8 7 7 7 7 7 7 7 6 6 6 6 6 5 5 5 5 5 4 4 4 4 4 4 4 4 3 3 3 3 3 3 3 3 3 2 2 2 2 2 2 2
13 13 13 13 13 13 13 13 12 12 12 11 11 11 10 10 10 9 9 9 9 8 8 8 8 8 7 7 7 7 7 7 7 6 6 6 6 6 6 5 5 5 5 5 4 4 4 4 4 4 4 4 3 3 3 3 3 3 3 3 3 2 2 2 2 2 2 2 2
13 13 13 13 13 13 13 12 12 12 12 11 11 11 10 10 10 9 9 9 8 8 8 8 8 7 7 7 7 7 7 7 6 6 6 6 6 6 5 5 5 5 5 4 4 4 4 4 4 4 3 3 3 3 3 3 3 3 3 2 2 2 2 2 2 2 2 2 1
13 13 13 13 12 12 12 12 12 12 12 11 11 10 10 10 9 9 9 8 8 8 8 8 7 7 7 7 7 7 7 6 6 6 6 6 6 5 5 5 5 5 4 4 4 4 4 4 3 3 3 3 3 3 3 3 3 2 2 2 2 2 2 2 2 2 2 2 1
12 12 12 12 12 12 12 12 12 12 11 11 10 10 9 9 9 9 8 8 8 8 8 7 7 7 7 7 7 7 6 6 6 6 6 6 5 5 5 5 5 4 4 4 4 4 3 3 3 3 3 3 3 3 3 3 2 2 2 2 2 2 2 2 2 2 2 1 1
12 12 12 12 12 12 11 11 11 11 11 10 10 9 9 9 9 8 8 8 8 8 7 7 7 7 7 7 6 6 6 6 6 6 6 5 5 5 5 5 4 4 4 4 4 3 3 3 3 3 3 3 3 3 2 2 2 2 2 2 2 2 2 2 2 2 1 1 1
12 11 11 11 11 11 11 11 11 11 10 10 10 9 9 9 8 8 8 8 8 7 7 7 7 7 6 6 6 6 6 6 6 5 5 5 5 5 4 4 4 4 4 4 3 3 3 3 3 3 3 3 2 2 2 2 2 2 2 2 2 2 2 2 2 2 1 1 1
11 11 11 11 11 11 11 11 11 10 10 10 9 9 8 8 8 8 8 7 7 7 7 7 7 6 6 6 6 6 6 5 5 5 5 5 5 4 4 4 4 4 3 3 3 3 3 3 3 2 2 2 2 2 2 2 2 2 2 2 2 2 2 2 1 1 1 1 1
11 11 11 11 11 11 11 11 10 10 9 9 9 8 8 8 8 7 7 7 7 7 7 6 6 6 6 6 6 5 5 5 5 5 5 5 4 4 4 4 4 3 3 3 3 3 3 2 2 2 2 2 2 2 2 2 2 2 1 1 1 1 1 1 1 1 1 1 1
10 11 11 11 11 11 11 10 10 9 9 9 8 8 8 8 7 7 7 7 7 7 6 6 6 6 6 5 5 5 5 5 5 5 5 4 4 4 4 4 3 3 3 3 3 3 2 2 2 2 2 2 2 2 1 1 1 1 1 1 1 1 1 1 1 1 1 1 1
10 10 10 11 11 10 10 10 10 9 9 8 8 8 7 7 7 7 7 7 6 6 6 6 6 5 5 5 5 5 5 5 5 5 4 4 4 4 4 3 3 3 3 3 2 2 2 2 2 2 2 1 1 1 1 1 1 1 1 1 1 1 1 1 1 1 1 1 0
10 10 10 10 10 10 10 9 9 9 8 8 8 7 7 7 7 7 7 6 6 6 6 5 5 5 5 5 5 5 5 5 5 4 4 4 4 3 3 3 3 3 2 2 2 2 2 2 2 2 1 1 1 1 1 1 1 1 1 1 1 1 1 1 1 1 1 0 0
10 10 10 10 10 10 9 9 9 8 8 8 7 7 7 7 7 7 6 6 6 6 5 5 5 5 5 5 5 5 5 5 4 4 4 4 3 3 3 3 3 2 2 2 2 2 2 2 1 1 1 1 1 1 1 1 1 1 1 1 1 1 1 1 1 1 1 0 0
10 10 9 9 9 9 9 9 8 8 8 7 7 7 7 7 6 6 6 6 6 5 5 5 5 5 5 5 5 5 4 4 4 4 4 3 3 3 3 2 2 2 2 2 2 2 1 1 1 1 1 1 1 1 1 1 1 1 1 1 1 1 1 1 1 1 0 0 0
9 9 9 9 9 9 8 8 8 8 7 7 7 7 7 6 6 6 6 5 5 5 5 5 5 5 5 5 5 4 4 4 4 4 3 3 3 3 2 2 2 2 2 2 1 1 1 1 1 1 1 1 1 1 1 1 1 1 1 1 1 1 1 1 0 0 0 0 0
9 9 9 9 9 8 8 8 7 7 7 7 7 6 6 6 6 5 5 5 5 5 5 5 5 5 5 5 4 4 4 4 3 3 3 3 3 2 2 2 2 2 1 1 1 1 1 1 1 1 1 1 1 1 1 1 1 1 1 1 1 0 0 0 0 0 0 0 -0
9 9 9 8 8 8 8 7 7 7 7 7 6 6 6 5 5 5 5 5 5 5 4 4 4 4 4 4 4 4 4 3 3 3 3 2 2 2 2 2 1 1 1 1 1 1 1 1 0 1 1 1 1 1 1 1 1 1 0 0 0 0 0 0 0 0 0 -0 -0
9 8 8 8 8 7 7 7 7 7 6 6 6 6 5 5 5 5 5 5 4 4 4 4 4 4 4 4 4 4 3 3 3 3 3 2 2 2 2 1 1 1 1 1 1 1 0 0 0 1 1 1 1 1 1 0 0 0 0 0 0 0 0 0 -0 -0 -0 -0 -0
8 8 8 7 7 7 7 7 6 6 6 6 5 5 5 5 5 5 5 4 4 4 4 4 4 4 4 4 3 3 3 3 3 3 2 2 2 2 1 1 1 1 1 1 1 0 0 0 0 1 1 1 1 0 0 0 0 0 0 0 -0 -0 -0 -0 -0 -0 -0 -1 -1
8 7 7 7 7 7 7 6 6 6 6 5 5 5 5 5 5 5 4 4 4 4 4 4 4 4 4 3 3 3 3 2 2 2 2 2 2 1 1 1 1 1 1 1 0 -0 0 0 1 1 1 1 0 0 0 0 0 -0 -0 -0 -0 -0 -0 -0 -0 -0 -1 -1 -1
7 7 7 7 7 6 6 6 6 6 5 5 5 5 5 5 5 4 4 4 4 4 4 4 4 4 3 3 3 3 2 2 2 2 2 1 1 1 1 1 1 0 0 0 -0 -0 0 0 1 1 1 0 0 0 0 -0 -0 -0 -0 -0 -1 -1 -1 -1 -1 -1 -1 -1 -1
7 7 7 6 6 6 6 6 5 5 5 5 5 5 5 5 4 4 4 4 4 4 4 4 4 3 3 3 3 2 2 2 2 1 1 1 1 1 1 0 0 0 0 -0 -0 -0 -0 0 0 0 0 0 0 -0 -0 -0 -0 -1 -1 -1 -1 -1 -1 -1 -1 -1 -1 -1 -2
7 7 6 6 6 6 5 5 5 5 5 5 5 5 5 4 4 4 4 4 4 4 4 4 3 3 3 3 2 2 2 2 1 1 1 1 1 1 0 0 0 0 -0 -0 -0 -0 -0 0 0 0 0 0 -0 -0 -0 -1 -1 -1 -1 -1 -1 -1 -1 -1 -1 -1 -1 -2 -2
6 6 6 6 5 5 5 5 5 5 5 5 5 5 4 4 4 4 4 4 4 4 4 3 3 3 3 2 2 2 2 1 1 1 1 1 1 0 0 0 -0 -0 -0 -0 -1 -1 -0 -0 -0 -0 -0 -0 -0 -0 -1 -1 -1 -1 -1 -1 -1 -1 -1 -1 -1 -2 -2 -2 -2
6 6 6 5 5 5 5 5 5 5 5 5 4 4 4 4 4 4 4 4 4 4 3 3 3 3 2 2 2 2 1 1 1 1 1 0 0 0 0 -0 -0 -0 -0 -1 -1 -1 -0 -0 -0 -0 -0 -0 -0 -1 -1 -1 -1 -2 -2 -2 -1 -1 -1 -1 -2 -2 -2 -2 -2
6 5 5 5 5 5 5 5 5 5 5 4 4 4 4 4 4 4 4 4 3 3 3 3 3 2 2 2 2 1 1 1 1 1 0 0 0 -0 -0 -0 -0 -0 -1 -1 -1 -1 -1 -1 -1 -1 -1 -0 -1 -1 -1 -2 -2 -2 -2 -2 -2 -2 -2 -2 -2 -2 -2 -2 -2
5 5 5 5 5 5 5 5 4 4 4 4 4 4 4 4 4 4 4 3 3 3 3 3 2 2 2 2 2 1 1 1 1 0 0 0 -0 -0 -0 -0 -1 -1 -1 -1 -1 -1 -1 -1 -1 -1 -1 -1 -1 -1 -2 -2 -2 -2 -2 -2 -2 -2 -2 -2 -2 -2 -2 -2 -2
5 5 5 5 5 4 4 4 4 4 4 4 4 4 4 4 4 3 3 3 3 3 2 2 2 2 2 1 1 1 1 1 0 0 0 -0 -0 -0 -1 -1 -1 -1 -1 -1 -1 -1 -1 -1 -1 -1 -1 -1 -1 -2 -2 -2 -2 -2 -2 -2 -2 -2 -2 -2 -2 -2 -2 -2 -2
5 5 5 5 4 4 4 4 4 4 4 4 4 4 4 4 3 3 3 3 3 2 2 2 2 1 1 1 1 1 1 0 0 0 -0 -0 -0 -1 -1 -1 -1 -1 -1 -1 -2 -1 -1 -1 -1 -1 -1 -1 -1 -2 -2 -2 -2 -2 -2 -2 -2 -2 -2 -2 -3 -3 -3 -3 -3
5 5 5 4 4 4 4 4 4 4 4 4 4 4 4 3 3 3 3 2 2 2 2 2 1 1 1 1 1 1 0 0 0 -0 -0 -0 -1 -1 -1 -1 -1 -1 -1 -1 -2 -2 -2 -1 -1 -1 -1 -1 -2 -2 -2 -2 -2 -3 -3 -3 -3 -3 -3 -3 -3 -3 -3 -3 -3
5 5 4 4 4 4 4 4 4 4 4 4 4 3 3 3 3 2 2 2 2 2 2 2 1 1 1 1 1 0 0 0 -0 -0 -0 -1 -1 -1 -1 -1 -1 -1 -1 -1 -2 -2 -2 -2 -2 -1 -1 -2 -2 -2 -2 -2 -2 -3 -3 -3 -3 -3 -3 -3 -3 -3 -3 -3 -3
4 4 4 4 4 4 4 4 4 4 4 4 3 3 3 3 2 2 2 2 2 2 2 1 1 1 1 1 0 0 0 -0 -0 -0 -1 -1 -1 -1 -1 -1 -1 -1 -1 -2 -2 -2 -2 -2 -2 -2 -2 -2 -2 -2 -2 -2 -3 -3 -3 -3 -3 -3 -3 -3 -3 -3 -3 -3 -3
4 4 4 4 4 4 4 4 4 4 4 3 3 3 2 2 2 2 2 2 2 1 1 1 1 1 1 0 0 0 -0 -0 -0 -1 -1 -1 -1 -1 -1 -1 -1 -2 -2 -2 -2 -2 -2 -2 -2 -2 -2 -2 -2 -2 -2 -2 -3 -3 -3 -3 -3 -3 -2 -2 -3 -3 -3 -3 -3
4 4 4 4 4 4 4 4 4 3 3 3 3 2 2 2 2 2 1 1 1 1 1 1 1 1 0 0 0 0 -0 -0 -0 -1 -1 -1 -1 -1 -1 -2 -2 -2 -2 -2 -2 -2 -2 -2 -2 -2 -2 -2 -2 -2 -2 -2 -2 -3 -3 -3 -2 -2 -2 -3 -3 -3 -3 -3 -3
4 4 4 4 4 4 4 4 3 3 3 2 2 2 2 2 2 1 1 1 1 1 1 1 1 0 0 0 -0 -0 -0 -0 -0 -1 -1 -1 -1 -1 -2 -2 -2 -2 -2 -2 -2 -2 -2 -2 -2 -2 -2 -2 -2 -2 -2 -2 -2 -2 -2 -2 -2 -2 -3 -3 -3 -3 -3 -3 -3
4 4 4 4 4 4 4 3 3 3 2 2 2 2 2 2 1 1 1 1 1 1 1 1 0 0 0 -0 -0 -0 -0 -1 -1 -1 -1 -1 -1 -2 -2 -2 -2 -2 -2 -2 -2 -3 -3 -2 -2 -2 -2 -2 -2 -2 -2 -2 -2 -2 -2 -2 -3 -3 -3 -3 -3 -3 -3 -3 -3
Height
770 771 772 774 775 776 778 779 781 782 783 784 785 786 787 788 788 789 790 791 791 791 792 792 792 792 792 793 793 793 793 793 793 793 793 793 793 792 792 792 792 792 791 791 791 790 790 789 789 788 788 787 786 786 785 784 783 782 782 781 781 780 779 779 778 777 777 776 776
770 771 772 774 775 776 778 779 781 782 783 784 785 786 787 788 789 789 790 791 791 791 792 792 792 792 792 792 792 792 792 792 792 792 792 792 792 792 792 792 791 791 791 791 790 790 789 789 788 787 787 786 786 785 784 783 783 782 781 781 780 779 779 778 777 776 776 775 775
770 771 773 774 775 776 778 779 781 782 783 784 785 786 787 788 789 789 790 791 791 791 791 792 792 792 792 792 792 792 792 792 792 792 792 792 792 792 792 791 791 791 791 790 790 789 789 788 787 787 786 785 785 784 783 782 782 781 781 780 779 778 778 777 776 776 775 774 774
770 771 773 774 775 776 778 779 781 782 783 784 785 786 787 788 789 789 790 791 791 791 791 791 792 792 792 792 792 792 792 792 792 792 792 792 792 791 791 791 791 790 790 790 789 789 788 787 787 786 785 785 784 783 782 782 781 781 780 779 778 778 777 776 776 775 774 773 772
770 772 773 774 775 776 778 779 781 782 783 784 785 786 787 788 789 789 790 790 791 791 791 791 791 791 792 792 792 792 792 792 792 791 791 791 791 791 791 791 790 790 789 789 788 788 787 786 786 785 785 784 783 783 782 781 781 780 779 778 778 777 776 775 775 774 773 772 771
771 772 773 775 776 777 778 779 781 782 783 784 785 786 787 788 789 789 790 790 791 791 791 791 791 791 791 791 791 791 791 791 791 791 791 791 791 791 790 790 790 789 789 788 787 787 786 786 785 785 784 783 783 782 781 781 780 779 778 777 777 776 775 774 773 772 772 771 770
771 772 774 775 776 777 778 780 781 782 783 784 785 786 787 788 789 789 790 790 790 791 791 791 791 791 791 791 791 791 791 791 791 791 791 791 790 790 790 789 789 788 788 787 787 786 786 785 784 784 783 782 782 781 781 780 779 778 777 776 776 775 774 773 772 771 771 770 769
771 772 774 775 776 777 778 780 781 782 783 784 785 786 787 788 789 789 790 790 790 790 791 791 791 791 791 791 791 791 791 791 791 791 790 790 790 789 789 789 788 788 787 786 786 785 785 784 784 783 782 782 781 780 780 779 778 777 776 775 774 774 773 772 771 770 769 768 767
771 773 774 775 776 778 779 780 781 782 783 784 786 786 787 788 789 789 790 790 790 790 790 791 791 791 791 791 791 791 791 790 790 790 790 790 789 789 788 788 787 787 786 786 785 784 784 783 783 782 782 781 780 780 779 778 777 776 775 774 773 772 772 771 770 769 768 767 766
771 773 774 776 777 778 779 780 781 782 783 785 786 787 787 788 789 789 789 790 790 790 790 790 790 791 791 790 790 790 790 790 790 790 789 789 789 788 787 787 786 786 785 785 784 784 783 782 782 781 781 780 780 779 778 777 776 775 774 773 772 771 771 770 769 768 767 766 765
771 773 774 776 777 778 779 781 781 783 784 785 786 787 787 788 789 789 789 790 790 790 790 790 790 790 790 790 790 790 790 790 789 789 789 788 788 787 787 786 786 785 785 784 783 783 782 782 781 781 780 779 779 778 777 776 775 774 773 772 771 770 769 768 768 767 766 765 764
772 773 774 776 777 778 779 781 782 783 784 785 786 787 788 788 789 789 789 789 790 790 790 790 790 790 790 790 790 790 789 789 789 789 788 788 787 787 786 786 785 784 784 783 783 782 782 781 781 780 779 778 777 777 776 775 774 773 772 771 770 769 768 767 766 766 765 764 763
772 773 775 776 777 778 780 781 782 783 784 786 786 787 788 788 788 789 789 789 789 790 790 790 790 790 790 790 789 789 789 789 788 788 788 787 786 786 786 785 784 784 783 783 782 781 781 781 780 779 778 777 776 776 775 774 773 772 771 770 769 768 767 766 765 764 763 762 761
772 773 775 776 777 778 780 781 782 784 785 786 786 787 788 788 788 789 789 789 789 789 790 790 790 790 789 789 789 789 789 788 788 787 787 786 786 785 785 784 784 783 782 782 781 781 780 780 779 778 777 776 775 775 774 773 772 771 770 769 768 767 766 765 764 763 762 761 760
773 774 775 776 777 779 780 781 782 784 785 786 787 787 788 788 788 789 789 789 789 789 789 789 789 789 789 789 789 788 788 788 787 787 786 786 785 785 784 783 783 782 781 781 781 780 780 779 778 777 776 776 774 774 773 772 771 770 769 768 767 766 765 764 763 762 761 760 759
773 774 775 776 778 779 780 781 783 784 785 786 787 787 788 788 788 788 789 789 789 789 789 789 789 789 789 789 788 788 787 787 786 786 786 785 784 784 783 782 782 781 781 780 780 779 779 778 777 776 776 775 774 773 772 771 770 769 768 767 766 765 764 763 762 761 760 759 758
773 775 776 777 778 779 781 782 783 784 785 786 786 787 787 788 788 788 788 788 789 789 789 789 789 789 788 788 788 787 787 786 786 785 785 784 784 783 782 782 781 781 780 780 779 778 778 777 776 776 775 774 773 772 771 770 769 768 767 766 765 764 763 762 761 760 759 758 757
774 775 776 777 778 780 781 782 783 784 785 786 786 787 787 787 788 788 788 788 788 789 789 789 789 788 788 787 787 787 786 786 785 785 784 784 783 782 782 781 781 780 780 779 778 777 777 776 775 775 774 773 772 771 770 769 768 767 766 765 764 763 762 761 760 759 758 757 756
774 775 776 778 779 780 781 782 783 784 785 786 786 786 787 787 787 788 788 788 788 788 788 788 788 788 787 787 786 786 786 785 785 784 784 783 782 782 781 781 780 779 779 778 777 777 776 775 774 773 772 771 771 770 769 768 766 766 765 764 763 762 761 760 759 758 757 756 754
774 775 777 778 779 780 781 782 783 784 785 785 786 786 786 787 787 787 788 788 788 788 788 788 788 787 787 786 786 786 785 785 784 784 783 782 782 781 781 780 779 779 778 777 776 776 775 774 773 772 771 771 769 768 767 766 766 764 763 762 761 761 760 758 757 756 756 754 753
774 776 777 778 780 781 781 782 783 784 785 785 786 786 786 787 787 787 787 788 788 788 788 787 787 786 786 786 785 785 785 784 784 783 782 782 781 781 780 779 779 778 777 776 776 775 774 773 772 771 770 769 768 767 766 765 764 763 762 761 760 759 758 757 756 755 754 753 752
775 776 777 779 780 781 782 783 783 784 785 785 786 786 786 786 787 787 787 787 787 787 787 787 786 786 786 785 785 784 784 784 783 783 782 781 781 780 780 779 778 777 776 776 775 774 773 772 771 771 770 769 767 766 766 764 763 762 761 760 759 758 757 756 755 754 753 752 751
775 776 778 779 780 781 782 783 783 784 784 785 785 786 786 786 786 787 787 787 787 787 787 786 786 786 785 785 784 784 783 783 782 782 781 781 780 780 779 778 777 776 776 775 774 773 772 771 771 770 769 768 767 766 764 763 762 761 760 758 757 756 756 755 754 752 751 751 750
775 776 778 779 780 781 782 782 783 784 784 785 785 785 786 786 786 786 787 787 787 786 786 786 786 785 785 784 784 783 783 782 782 781 781 780 779 779 778 777 776 776 775 774 773 772 772 771 770 769 768 767 766 765 763 762 761 760 758 757 756 755 754 753 752 751 750 749 748
775 776 778 779 780 781 781 782 783 783 784 784 785 785 785 786 786 786 786 786 786 786 786 786 785 785 785 784 784 783 782 782 781 781 780 779 778 778 777 776 776 775 774 773 773 772 772 771 770 768 767 766 765 763 762 761 760 759 757 756 755 754 752 751 751 750 749 748 747
776 777 778 779 780 781 781 782 783 783 784 784 784 785 785 785 786 786 786 786 786 786 786 785 785 785 784 784 783 783 782 781 781 780 779 778 778 777 776 776 775 775 774 773 772 772 771 770 769 768 766 765 763 762 761 760 759 758 756 755 754 753 751 750 749 748 748 747 746
776 777 778 779 780 781 781 782 782 783 783 784 784 784 785 785 785 786 786 786 786 786 785 785 785 784 784 783 782 782 781 781 780 780 779 778 777 777 776 776 775 774 773 772 772 771 770 769 768 767 766 764 763 761 760 759 757 756 756 754 753 752 751 749 748 747 746 746 745
776 777 778 779 780 781 781 782 782 783 783 783 784 784 784 785 785 785 785 785 785 785 785 784 784 784 783 782 782 781 781 780 780 779 778 778 777 776 776 775 774 773 773 772 771 770 769 768 767 766 765 763 762 761 759 758 757 756 754 753 752 751 750 748 747 746 746 745 744
776 777 778 779 780 780 781 781 782 782 783 783 783 784 784 784 785 785 785 785 785 785 784 784 783 783 782 782 781 781 780 780 779 778 778 777 776 776 775 775 774 773 772 771 770 769 768 767 766 765 764 762 761 760 758 757 756 755 753 752 751 750 749 748 747 746 745 744 743
776 777 778 779 780 780 781 781 782 782 782 783 783 784 784 784 784 784 784 784 784 784 784 783 783 782 782 781 781 780 780 779 779 778 777 776 776 775 775 774 773 772 771 770 769 768 767 766 765 764 763 762 761 759 758 756 755 754 753 751 751 749 748 747 746 745 744 743 742
776 777 778 779 779 780 781 781 781 782 782 783 783 784 784 784 784 784 784 784 784 784 783 783 782 782 781 781 780 780 779 779 778 777 777 776 776 775 774 773 772 771 770 769 768 767 766 765 764 763 762 761 760 758 757 756 755 753 752 751 750 749 748 747 746 745 743 742 741
776 777 778 779 779 780 780 781 781 782 782 783 783 783 783 784 784 784 784 784 783 783 783 782 782 781 781 780 780 779 779 778 777 777 776 776 775 774 773 772 771 770 769 768 767 766 766 764 763 762 761 760 759 757 756 755 754 753 751 751 749 748 747 746 745 744 743 742 741
776 777 778 778 779 779 780 781 781 781 782 783 783 783 783 783 783 783 783 783 783 783 782 782 781 781 780 780 779 778 778 778 777 776 776 775 774 773 772 771 771 770 768 767 766 766 765 763 762 761 760 759 758 756 755 754 753 752 751 750 749 748 747 746 744 743 742 741 740
776 777 778 778 779 779 780 781 781 781 782 782 783 783 783 783 783 783 783 783 782 782 782 781 781 781 780 779 779 778 777 777 776 776 775 775 774 773 771 771 770 769 768 766 766 765 764 762 761 760 759 758 757 756 754 753 752 751 750 749 748 747 746 745 744 742 741 740 739
777 777 778 778 779 779 780 781 781 781 782 782 782 782 783 783 783 783 783 782 782 782 781 781 781 780 780 779 778 778 777 776 776 775 775 774 773 772 771 770 769 768 767 766 765 764 763 762 761 760 758 757 756 755 753 752 751 750 749 748 747 746 745 744 742 741 740 739 737
776 777 777 778 779 779 780 781 781 781 781 782 782 782 783 783 783 782 782 782 782 781 781 781 780 780 779 778 778 777 777 776 775 775 774 773 772 771 770 769 768 767 766 765 764 763 762 761 760 759 757 756 755 754 752 751 750 749 748 747 746 745 743 742 741 740 738 737 736
777 777 777 778 779 779 780 780 781 781 781 782 782 782 782 782 782 782 782 781 781 781 780 780 779 779 778 778 777 777 776 776 775 774 773 772 771 770 769 768 767 766 765 764 763 762 761 760 759 758 756 755 754 752 751 750 749 748 747 746 745 743 742 741 739 738 737 736 736
777 777 778 778 779 779 780 780 781 781 781 782 782 782 782 782 782 782 781 781 781 780 780 779 779 778 778 777 777 776 776 775 774 773 772 771 770 769 768 767 766 765 764 763 762 761 761 759 758 757 756 754 753 752 751 749 748 747 746 745 743 742 741 739 737 736 736 735 735
777 777 778 778 779 779 779 780 781 781 781 781 782 782 782 782 782 781 781 781 780 780 779 779 778 778 777 777 776 776 775 774 774 773 772 771 770 769 768 766 765 764 764 763 762 761 760 759 757 756 755 754 752 751 750 748 747 746 745 743 742 740 739 737 737 736 735 734 733
777 777 778 778 778 779 779 780 781 781 781 781 781 781 781 781 781 781 781 781 780 780 779 778 778 777 777 776 776 775 774 773 773 772 771 770 769 768 767 766 765 764 763 762 761 760 759 758 757 756 754 753 752 750 749 748 746 745 744 742 741 738 737 736 736 735 734 733 732
777 777 778 778 778 779 780 780 781 781 781 781 781 781 781 781 781 781 780 780 780 779 779 778 777 777 776 776 775 774 773 772 772 771 770 769 768 767 766 765 764 763 762 761 760 759 758 757 756 755 754 752 751 750 748 747 746 744 742 741 739 737 736 735 735 734 733 732 731
Wind_Speed
28 27 26 25 24 22 21 19 18 17 15 14 14 13 12 11 11 10 8 7 6 5 4 4 3 3 2 2 1 1 1 1 2 2 3 3 3 4 4 5 6 6 7 8 9 10 10 11 12 13 14 14 15 15 15 16 16 17 17 18 18 19 19 19 19 19 19 18 17
27 26 25 24 23 22 21 19 18 17 15 14 13 12 12 11 11 10 9 7 6 5 4 4 3 3 2 2 1 1 1 1 1 2 2 2 3 3 4 5 6 6 7 8 9 10 11 12 13 14 14 15 15 15 16 16 17 17 18 19 19 19 20 20 20 19 19 19 18
27 26 25 24 24 22 21 20 18 17 16 14 13 12 11 11 10 9 8 7 6 5 4 4 4 3 3 2 2 1 1 1 1 1 1 2 2 3 4 5 6 7 7 8 9 10 11 12 13 14 15 15 16 16 16 17 17 18 19 19 20 20 20 20 20 20 20 19 19
27 26 25 25 24 22 20 19 18 17 16 15 14 12 11 11 10 9 8 7 6 5 5 4 4 3 3 2 2 1 1 1 1 1 1 2 3 4 4 5 6 7 8 9 10 11 12 13 14 14 15 16 16 17 17 18 18 19 19 20 20 20 20 20 20 20 20 20 19
26 26 25 24 23 21 20 19 18 17 16 15 14 13 12 11 10 9 8 7 7 6 5 4 4 3 2 2 1 1 1 1 1 1 2 2 3 4 5 6 7 8 9 9 10 11 12 13 14 15 15 16 16 17 17 18 19 19 20 20 20 20 21 21 21 20 20 20 20
27 26 25 24 22 21 19 18 18 17 16 15 14 13 12 11 10 9 8 7 6 5 5 4 3 2 2 1 1 1 1 1 1 2 2 3 4 5 6 7 8 8 9 10 11 12 13 14 15 15 16 16 17 17 18 19 19 20 20 20 20 21 21 21 21 21 21 21 20
27 26 25 24 22 21 20 19 18 17 15 14 13 13 12 11 10 9 8 7 6 5 4 3 2 1 1 0 1 1 1 1 2 2 3 4 5 6 7 8 8 9 10 11 12 13 14 15 16 16 17 17 18 18 19 19 20 20 21 21 21 21 21 21 21 21 21 21 21
27 26 25 23 22 20 19 18 17 16 15 14 13 12 11 10 9 8 7 6 5 5 4 3 2 1 1 1 1 1 1 2 2 3 4 5 6 7 8 9 9 10 11 12 13 14 15 15 16 17 18 18 19 19 19 20 20 20 21 21 21 21 21 21 21 21 21 21 21
26 25 24 22 21 20 19 17 16 15 14 13 12 11 10 9 8 7 7 6 5 4 3 2 1 1 1 1 1 2 2 2 3 4 5 6 7 8 9 10 10 11 12 13 14 15 16 16 17 17 18 19 19 19 20 20 20 21 21 21 22 21 21 21 21 21 21 21 21
26 25 23 22 20 19 17 16 15 13 13 12 11 10 9 8 7 6 5 5 4 3 2 1 1 1 2 2 2 2 2 3 4 5 6 7 8 9 10 11 11 12 13 14 15 16 17 17 18 18 18 19 19 20 20 20 20 21 21 21 21 22 21 21 21 21 21 21 21
26 24 23 21 20 18 17 16 14 13 12 12 11 10 8 7 6 5 5 4 3 3 2 1 1 2 2 2 2 3 3 4 5 6 7 8 9 9 10 11 12 13 14 15 16 17 17 18 19 19 19 19 19 20 20 20 20 21 21 21 21 22 22 21 21 21 21 21 20
25 23 22 21 19 18 16 15 14 13 12 11 10 9 8 7 6 5 4 3 3 2 2 2 2 2 2 2 2 3 4 5 6 6 7 8 9 10 11 12 13 14 15 16 16 17 18 19 19 20 20 20 20 20 20 20 20 20 21 21 21 21 22 22 21 21 21 20 20
24 23 22 20 19 17 16 15 14 12 11 10 9 9 8 7 6 5 4 3 2 2 2 2 2 2 2 2 3 3 4 5 6 7 8 9 10 11 12 13 14 14 15 16 17 18 18 19 19 20 20 20 20 20 20 20 20 20 21 21 22 22 22 22 22 21 21 20 19
24 23 21 20 18 17 15 14 13 12 11 10 9 8 8 7 6 5 3 3 2 2 2 2 2 2 2 3 3 4 5 6 7 8 9 10 11 12 13 14 14 15 16 17 17 18 18 19 19 20 20 20 20 20 19 19 20 20 21 21 22 22 22 22 22 21 20 20 19
23 22 20 19 18 16 15 14 13 12 11 10 9 8 7 6 5 4 3 3 2 2 2 2 2 2 2 3 4 5 6 7 8 9 10 11 12 13 14 14 15 16 17 17 17 18 18 19 19 19 20 20 20 20 19 19 20 20 21 21 22 22 22 22 22 21 20 20 19
22 21 20 18 17 16 15 14 13 12 11 10 9 8 7 6 5 4 3 3 2 2 2 1 2 2 3 3 4 5 6 7 8 10 11 12 13 14 14 15 16 16 17 17 18 18 18 19 19 19 19 19 19 19 20 20 20 20 21 21 21 22 22 22 22 21 20 20 20
21 20 19 17 16 15 14 13 12 12 11 10 9 8 6 5 4 3 3 2 2 1 1 2 2 3 3 4 5 6 7 8 9 10 12 13 14 14 15 15 16 17 17 18 18 19 19 19 19 18 18 18 19 20 20 20 21 21 21 22 22 22 22 22 22 21 21 21 20
20 19 17 16 15 14 13 13 12 11 10 9 8 7 6 5 4 3 2 2 1 1 1 2 2 3 4 5 5 7 8 9 10 11 12 13 14 14 15 15 16 16 17 18 18 19 19 19 19 18 18 19 19 20 20 21 21 22 22 22 22 22 22 22 22 22 21 21 21
19 18 17 15 14 13 13 12 11 11 10 9 7 6 5 4 3 3 2 1 1 1 2 3 3 4 4 5 6 8 9 10 11 12 12 13 13 14 15 15 16 16 17 18 18 19 19 19 19 18 19 19 20 21 21 21 22 22 22 23 23 23 23 22 22 22 22 22 22
19 17 16 15 14 13 12 12 11 10 9 8 7 6 5 4 3 2 1 0 1 2 3 3 4 4 5 6 7 8 9 10 11 12 12 13 13 14 14 15 16 17 17 18 19 19 19 18 19 19 20 20 21 21 22 22 22 23 23 23 23 23 23 23 22 22 22 22 22
18 17 16 14 14 13 12 11 11 10 9 8 7 6 4 3 2 1 1 1 2 2 3 4 4 5 6 7 8 9 10 11 11 12 12 13 13 14 15 15 16 17 18 18 19 19 18 18 19 20 20 21 21 22 22 22 23 23 23 23 23 23 23 23 23 23 23 22 22
17 16 15 14 13 13 12 11 10 10 9 7 6 5 4 3 2 1 1 1 2 3 3 4 5 6 7 8 9 10 10 11 11 11 12 12 13 14 15 16 17 17 18 19 19 19 19 19 20 20 20 21 21 21 22 22 23 23 23 23 23 23 23 23 23 23 22 22 21
17 16 15 14 13 12 12 11 10 9 8 7 6 5 3 3 2 1 1 2 2 3 4 5 6 7 8 9 9 10 11 11 11 11 12 12 13 14 15 16 17 18 19 19 19 19 19 20 20 20 20 20 21 21 22 22 23 23 23 23 23 23 23 23 23 23 22 21 19
16 16 15 14 13 12 12 11 10 9 8 7 5 4 3 2 2 1 1 2 3 3 4 5 6 7 8 8 9 10 10 11 12 12 12 13 14 15 16 17 17 18 19 19 19 18 18 19 20 20 20 20 21 22 22 22 23 23 23 23 23 24 24 24 23 22 21 19 17
16 16 15 14 13 13 12 11 10 9 7 6 5 4 3 2 1 1 1 2 3 4 4 5 6 7 7 8 9 9 10 11 12 13 14 14 15 16 17 17 18 19 19 19 19 18 17 18 19 19 20 21 21 22 22 22 22 22 22 23 23 24 24 24 22 21 19 17 16
17 16 15 14 14 13 12 10 9 8 6 5 4 3 2 1 1 1 2 2 3 4 5 5 6 7 8 8 9 9 10 11 12 13 15 16 16 17 17 18 19 19 19 19 18 17 18 18 18 19 20 21 22 22 22 22 22 22 22 23 23 24 24 23 21 19 18 17 16
17 16 16 15 14 12 11 10 8 7 5 4 3 2 1 1 1 1 2 3 3 4 5 6 7 7 8 9 9 10 11 12 13 14 15 16 17 18 18 18 19 19 19 19 18 18 18 18 19 19 19 20 21 22 22 22 22 22 23 23 23 23 22 21 20 19 18 17 17
18 17 16 14 13 12 10 9 7 6 5 3 2 1 0 0 1 2 2 3 4 5 5 6 7 8 8 9 10 11 12 13 14 15 15 16 17 17 18 18 19 19 19 19 18 17 18 18 19 19 19 20 21 21 21 21 22 23 23 24 23 22 21 19 18 18 18 18 18
17 16 15 14 13 11 10 8 7 5 4 3 2 1 0 1 1 2 3 3 4 5 6 7 8 8 9 9 10 11 12 13 14 15 16 17 17 18 18 18 19 19 19 18 17 17 18 18 19 19 20 20 20 20 20 21 22 23 24 23 23 22 20 18 17 17 18 19 20
17 16 14 13 12 11 9 8 6 5 3 2 1 1 1 1 2 2 3 4 5 6 7 8 8 9 9 10 11 12 13 14 15 16 16 17 18 18 18 19 19 19 19 18 17 17 18 18 19 19 20 20 20 19 20 21 22 23 23 23 22 21 19 18 18 18 19 20 22
16 15 14 13 11 10 9 7 5 4 3 2 1 1 1 1 2 2 3 4 5 6 7 8 8 9 10 11 12 13 14 15 15 16 17 17 18 18 19 19 19 19 19 18 17 17 18 19 19 19 20 20 19 19 20 21 22 22 22 22 21 20 19 19 19 19 21 22 24
15 14 13 12 11 9 8 6 4 3 2 2 1 1 1 1 1 2 3 4 5 6 7 8 9 10 11 12 13 14 15 16 16 17 17 17 18 18 19 19 19 19 19 18 17 18 18 19 19 19 20 20 19 19 20 21 22 22 21 21 20 20 20 20 20 21 22 24 25
14 13 12 11 9 8 7 5 4 3 2 2 1 1 1 1 1 2 4 5 6 7 8 9 10 12 13 14 15 15 16 16 16 17 17 17 18 18 19 19 19 19 18 18 17 18 18 19 19 19 20 19 19 20 21 21 21 21 21 20 20 20 20 20 21 22 23 24 25
13 11 10 9 8 7 6 5 4 3 3 2 2 1 1 1 2 3 4 5 6 7 8 10 11 12 13 14 15 16 16 16 17 17 17 18 18 18 19 19 18 18 18 18 18 18 18 19 19 19 20 19 20 20 21 21 21 21 20 20 20 20 20 20 21 22 23 24 25
11 10 9 8 7 6 5 5 4 3 3 2 2 1 0 1 2 4 5 6 7 8 9 10 11 11 12 13 14 15 16 17 17 17 17 18 18 18 19 19 18 18 18 18 18 18 18 19 19 20 20 20 20 20 21 21 21 20 20 20 20 20 20 21 22 22 23 24 24
10 9 8 7 7 6 5 5 4 4 3 3 2 1 1 2 3 4 6 7 8 9 10 10 11 12 13 14 15 16 16 17 17 18 18 18 18 18 19 19 18 18 17 17 18 18 18 19 19 20 20 20 20 21 21 20 20 20 20 20 20 21 21 22 23 23 23 23 23
8 7 7 7 6 6 6 5 5 4 3 2 1 1 1 2 4 5 6 7 9 10 11 12 12 13 14 15 16 16 16 17 17 18 18 17 18 18 18 19 18 18 18 17 18 18 18 19 19 20 20 20 21 21 21 20 20 20 20 21 21 21 22 23 23 23 22 21 21
7 6 6 7 7 6 6 5 5 4 3 2 1 1 2 3 4 6 7 8 10 11 12 13 13 14 15 15 16 16 16 16 17 17 17 17 17 18 18 19 18 18 17 17 18 18 18 18 19 19 20 20 21 21 20 20 20 20 20 21 21 22 23 23 22 21 20 19 19
7 6 6 7 7 6 6 5 4 3 2 2 1 2 3 4 5 6 7 9 10 11 12 13 14 14 15 15 16 16 16 16 16 16 17 17 17 17 17 18 18 18 17 17 18 18 18 18 19 19 20 20 20 20 20 20 20 20 20 21 22 23 23 22 20 18 18 19 20
7 7 7 7 7 6 6 5 4 3 2 1 2 3 4 5 6 7 8 9 10 11 12 13 14 14 14 15 16 17 17 17 16 16 16 16 16 16 17 17 18 18 17 17 18 18 18 18 19 19 20 19 19 19 19 19 19 20 20 21 22 22 21 19 16 16 18 21 24
7 7 7 7 7 6 5 4 3 2 1 1 2 4 5 6 7 8 9 9 10 11 12 13 14 14 14 15 15 16 17 17 16 16 16 16 16 16 16 17 17 17 17 18 18 18 18 18 19 19 19 19 19 19 19 19 19 20 21 22 22 20 18 16 16 18 20 24 26
Wind_Direction
169 168 168 167 166 165 164 163 163 166 170 173 176 178 180 181 180 179 180 182 181 178 174 172 170 169 170 172 191 235 278 298 306 307 308 308 310 311 312 315 316 318 319 320 322 323 325 327 329 331 333 335 338 341 344 346 347 347 347 346 346 345 344 343 343 342 341 339 336
170 170 169 168 167 166 165 164 165 168 172 176 178 180 181 183 182 180 178 177 176 175 172 167 163 163 167 176 187 221 258 283 292 298 304 306 310 314 316 318 320 321 321 322 323 325 326 327 328 330 332 334 337 339 342 344 344 344 344 344 343 343 342 341 340 340 339 336 334
171 171 170 170 169 167 166 166 167 169 171 173 176 178 180 182 182 180 176 173 173 172 167 162 158 159 164 173 184 199 230 266 282 293 302 309 316 320 323 323 325 325 325 325 325 326 327 328 329 330 332 334 336 338 340 342 342 341 341 341 340 340 339 338 338 338 337 335 333
172 172 172 171 171 170 169 169 169 169 170 171 173 174 177 179 180 178 175 173 171 167 163 158 157 157 161 169 178 191 219 255 287 302 312 321 326 327 328 328 328 329 328 328 328 328 328 329 330 331 332 334 335 337 338 339 339 338 338 337 337 337 337 336 337 336 335 333 331
172 173 173 173 172 171 171 171 170 170 170 171 172 173 175 177 178 177 175 173 170 167 163 159 157 155 157 162 175 196 233 275 304 318 326 330 332 332 332 332 332 332 331 331 331 331 330 330 331 332 333 334 334 335 336 336 336 335 334 335 335 335 335 335 335 335 334 332 330
172 173 173 173 172 171 171 172 172 171 172 173 174 174 174 176 177 177 175 174 173 171 167 164 159 155 153 163 189 222 270 307 320 328 333 334 335 334 334 334 334 334 334 333 333 333 332 332 332 332 332 333 333 333 334 334 334 333 332 332 333 333 334 334 334 334 333 331 329
172 173 172 171 171 170 170 170 171 172 173 174 176 176 175 176 177 177 178 180 181 177 173 169 164 159 169 204 244 266 292 317 326 334 335 336 336 335 335 334 335 336 336 335 335 334 333 332 332 332 332 332 332 332 332 333 332 331 331 331 332 333 333 333 333 333 331 329 328
171 171 171 170 170 170 170 170 170 171 172 174 175 176 176 177 177 178 181 183 182 181 178 174 176 192 244 266 273 287 305 322 332 335 338 337 336 335 335 335 336 337 338 337 336 335 334 332 332 332 331 331 331 331 331 332 331 331 330 331 331 332 332 333 332 331 330 328 326
168 168 168 168 168 169 169 169 170 171 171 172 173 175 176 176 178 179 180 181 181 182 181 185 201 248 273 281 288 301 317 329 337 339 339 338 336 336 335 336 336 337 338 338 336 335 333 332 331 330 330 330 330 330 330 331 331 331 330 331 331 331 331 332 331 330 329 327 325
165 165 165 164 165 166 166 166 168 171 172 171 172 174 175 175 176 176 177 178 179 181 184 196 235 268 279 285 297 311 324 333 338 339 339 338 337 338 337 337 337 338 338 337 336 334 332 331 330 329 329 329 329 330 330 330 331 331 330 330 331 330 330 331 331 329 327 325 323
164 163 163 162 162 163 164 163 165 169 172 172 172 173 173 173 173 173 174 176 177 179 190 224 258 270 277 289 303 317 328 334 337 338 338 338 338 338 339 339 338 338 337 336 335 334 332 331 330 330 329 329 329 330 330 331 331 331 330 330 330 330 330 330 330 329 326 324 321
162 161 161 161 161 162 163 163 165 168 171 172 173 172 172 172 172 172 173 175 178 186 212 243 262 270 281 295 310 323 330 335 335 336 337 337 338 338 338 338 338 337 336 335 334 333 332 332 331 331 330 330 329 330 331 332 332 331 330 330 330 329 329 329 329 328 325 322 319
160 159 159 159 160 162 164 165 166 168 170 172 172 173 173 173 173 175 176 178 186 205 229 248 263 275 288 305 317 327 332 334 334 335 336 336 337 337 337 337 336 335 335 334 333 332 332 332 332 332 332 331 330 331 331 332 332 331 330 330 329 328 328 328 328 327 324 321 317
158 158 158 158 160 162 164 165 167 168 170 171 172 174 174 174 175 176 179 184 198 218 235 251 266 284 302 316 325 331 332 333 333 333 334 335 336 336 336 336 335 334 333 332 332 332 332 333 333 333 332 332 331 331 331 332 332 331 330 329 328 327 327 327 327 326 323 319 315
156 157 158 159 161 163 164 165 166 167 169 171 172 173 175 175 176 179 184 193 207 223 241 257 279 302 317 324 328 330 332 332 332 332 333 334 334 335 335 334 334 333 332 331 331 331 331 332 333 333 332 332 331 331 332 332 332 331 329 328 327 326 326 326 326 325 322 318 314
156 156 158 160 161 162 163 164 165 167 169 170 171 172 174 175 177 182 188 198 212 229 248 278 306 320 327 328 329 329 330 331 331 332 333 334 334 335 334 334 334 333 332 331 331 330 330 331 331 332 332 332 332 332 332 332 331 330 328 327 327 326 326 326 325 323 321 318 314
156 157 158 160 161 162 162 163 164 166 167 169 169 170 172 175 179 185 192 201 218 240 278 308 321 327 329 330 330 330 330 331 333 334 335 335 335 335 334 334 334 333 333 332 331 331 330 330 331 332 333 333 333 332 332 331 330 328 327 326 326 325 325 325 324 322 320 317 313
156 157 159 160 161 161 162 163 163 165 166 168 168 169 172 176 179 186 193 207 231 285 318 327 326 327 329 332 333 332 332 333 334 335 335 335 335 334 333 333 333 332 333 332 332 331 331 331 332 333 334 334 334 333 331 330 328 327 326 325 325 324 324 324 323 322 320 317 313
157 158 159 160 160 161 162 162 163 165 166 167 168 169 172 175 178 182 187 216 281 315 328 331 331 330 329 333 334 334 334 334 334 334 334 334 334 334 333 333 333 332 333 333 332 332 332 333 335 336 336 335 334 332 330 328 327 326 325 324 324 324 324 323 323 321 320 317 314
158 158 159 160 161 161 162 163 164 165 166 167 168 168 169 170 172 170 158 350 330 329 329 330 331 332 331 332 333 334 335 334 334 333 333 333 334 335 335 334 334 334 333 333 333 334 335 336 338 338 337 335 332 330 328 327 326 325 324 324 324 323 323 323 322 321 320 318 315
158 159 160 161 162 163 164 165 165 166 166 166 165 163 162 158 152 135 68 2 342 334 331 330 331 333 333 332 333 335 335 334 334 334 333 334 335 337 337 336 336 335 334 335 335 336 338 340 340 338 335 333 330 328 327 326 325 324 324 324 323 323 323 323 323 322 321 319 317
159 160 161 163 164 165 165 165 165 165 163 162 159 155 150 140 126 93 36 358 343 336 333 333 333 333 334 334 334 334 333 332 333 333 334 336 337 338 338 338 338 337 337 338 338 340 341 341 339 336 333 330 328 327 326 326 325 324 324 324 324 323 323 323 323 323 322 321 319
160 161 163 164 165 166 165 164 163 162 159 155 151 146 137 124 104 64 19 353 339 335 333 332 332 333 334 334 333 333 332 331 332 333 335 337 339 340 341 340 341 341 341 341 342 343 342 338 335 332 330 328 327 327 326 326 325 325 325 324 324 324 324 325 325 325 324 323 323
161 163 164 166 166 166 165 163 161 158 154 148 142 135 125 108 84 45 4 341 334 332 331 330 331 332 334 335 335 334 334 334 335 335 337 339 341 342 343 343 344 343 343 343 345 343 338 333 331 330 329 328 328 327 327 327 326 326 325 325 325 325 325 326 326 327 327 327 326
163 165 166 166 166 165 163 161 158 153 149 143 137 129 117 97 67 20 346 333 329 327 327 328 330 332 335 337 338 338 339 340 341 341 341 341 342 344 345 345 345 344 344 345 345 339 332 331 330 330 329 329 329 328 328 327 327 327 327 327 326 326 326 327 329 330 330 331 330
165 166 166 166 165 163 161 158 154 150 145 139 132 123 106 80 29 349 333 327 326 325 326 329 332 335 338 340 341 342 345 347 347 346 345 345 345 345 345 346 345 344 344 345 342 336 331 331 331 331 331 330 330 330 329 329 329 329 329 329 329 328 328 328 330 332 334 333 332
165 165 165 164 163 160 158 155 152 148 142 136 129 117 98 51 348 326 322 322 322 324 326 331 336 340 341 341 343 346 349 351 350 350 349 348 347 346 346 346 345 344 344 344 339 334 331 332 332 333 332 332 331 331 330 330 331 331 332 332 331 331 330 331 332 334 334 334 333
164 164 163 162 160 158 155 153 150 146 141 136 129 118 90 341 320 317 317 316 318 323 329 337 341 343 343 344 347 349 351 352 352 351 349 348 346 346 345 345 343 343 343 343 338 334 332 333 333 334 334 333 332 332 331 332 333 334 334 334 333 333 332 332 333 333 333 333 332
163 163 162 161 159 157 155 153 150 146 143 140 135 135 244 307 309 308 309 312 319 328 337 342 343 343 344 347 348 350 351 352 352 350 348 347 345 344 343 343 342 341 342 342 337 333 333 334 334 335 334 334 333 332 332 333 334 335 335 335 335 334 333 332 332 332 332 332 330
163 163 162 160 158 156 154 152 150 147 144 145 152 176 253 287 296 299 306 317 329 338 341 342 343 344 347 348 348 349 351 351 351 350 348 346 344 343 341 341 340 341 341 341 337 334 333 334 334 335 335 335 334 333 333 334 335 335 335 335 335 334 333 331 331 331 331 330 328
163 163 162 160 158 155 153 151 150 147 148 155 172 197 247 282 295 305 316 327 336 340 341 340 342 344 346 347 348 349 349 349 349 349 347 345 343 341 339 339 339 340 342 340 336 334 334 334 334 334 334 335 334 333 333 334 335 335 334 334 333 332 331 330 329 329 329 327 325
164 164 162 160 156 152 150 149 148 149 154 166 178 194 222 274 308 318 326 331 336 340 341 341 343 344 346 346 347 347 348 348 348 347 346 344 341 339 337 337 338 340 342 340 336 333 333 334 333 333 333 334 333 333 333 334 334 334 333 332 331 330 329 328 328 327 326 324 321
163 163 161 158 153 149 147 147 149 154 160 169 176 183 202 285 312 323 330 333 338 341 343 345 345 346 347 346 346 346 346 346 345 345 343 341 339 337 336 337 338 341 342 340 335 333 333 333 332 332 332 333 332 332 333 333 333 333 332 331 329 328 326 326 325 324 321 319 316
162 161 158 155 150 146 145 147 151 156 161 163 168 178 214 307 328 333 337 339 341 343 344 345 346 346 346 345 345 344 344 343 343 342 341 339 338 336 335 336 338 341 342 341 336 333 332 331 331 331 332 332 332 332 332 333 332 332 331 329 328 326 325 323 321 319 316 314 313
160 158 155 150 147 145 145 148 152 156 159 159 160 171 256 332 340 341 342 341 341 341 342 343 343 343 343 343 343 343 342 342 341 340 339 338 337 336 335 336 338 340 342 342 338 333 331 330 330 330 331 331 331 331 332 331 331 330 329 327 326 324 322 320 317 314 312 312 312
158 155 151 148 146 147 148 150 153 155 157 157 154 135 16 354 349 345 341 339 338 339 340 342 342 342 342 342 342 342 341 340 339 338 338 338 337 336 336 336 338 340 342 341 338 333 330 329 329 329 330 330 330 330 330 330 329 328 327 326 324 322 320 317 314 311 310 311 312
152 150 149 147 148 148 149 150 152 154 154 150 138 71 14 2 355 348 342 338 338 338 339 340 342 343 342 341 340 339 339 338 338 337 337 337 338 337 336 337 338 340 341 340 338 333 329 328 328 329 329 329 329 329 329 329 328 327 325 324 322 319 317 314 311 310 310 312 315
146 146 147 148 148 148 149 150 151 150 146 136 101 32 7 357 353 349 344 340 339 338 338 338 340 341 340 338 336 335 335 336 337 337 337 338 338 338 337 337 337 339 340 339 337 333 328 327 327 328 329 329 328 328 328 327 326 325 324 322 319 317 314 311 310 310 312 317 321
143 145 147 147 147 147 147 149 149 144 134 113 60 20 1 353 349 347 343 340 338 337 336 336 337 337 337 335 333 332 332 334 336 337 338 339 339 339 338 336 336 337 338 338 337 333 329 327 326 328 329 328 327 327 326 326 325 324 322 320 318 315 312 311 311 315 321 325 325
143 145 146 145 145 146 148 148 146 138 119 79 29 7 355 349 344 341 338 336 335 334 333 333 333 333 334 333 332 332 331 333 335 338 340 340 340 339 338 336 335 335 337 337 337 334 329 327 326 327 328 328 327 326 326 325 324 322 321 318 315 312 312 314 319 326 329 328 325
143 145 146 145 145 146 147 145 140 131 103 45 11 358 348 342 338 335 334 333 333 332 331 330 330 330 331 332 332 332 332 333 336 339 341 341 341 340 339 337 335 335 336 337 337 334 329 326 326 327 327 327 327 326 325 324 322 320 317 314 312 312 315 323 331 333 330 326 322